Flag for Netherlands Weather past 2 weeks in Kralendijk, Bonaire, Netherlands

Now
81 °F

Warm.


Feels Like: 85 °F
Forecast: 80 / 87 °F
Wind: 18 mph from East

Location: Flamingo Airport - Bonaire

Current Time: Jul 29, 2015 at 6:18:25 AM

Latest Report: Jul 29, 2015 at 6:00 AM


Visibility: N/A

Pressure: 29.92 "Hg

Humidity: 79%

Dew point: 73 °F

Location of KralendijkLocation

Historic Weather in Kralendijk — Graph

°F

Kralendijk temperature yesterday

Maximum temperature yesterday: 88 °F (at 12:00 PM)
Minimum temperature yesterday: 81 °F (at 1:00 AM)
Average temperature yesterday: 83 °F

Past Weeks' High & Low Weather Summary

 TemperatureHumidityPressure
High88 °F (Jul 14, 12:00 PM)89% (Jul 21, 10:00 PM)30.04 "Hg (Jul 21, 10:00 PM)
Low48 °F (Jul 24, 12:00 AM)66% (Jul 15, 1:00 PM)29.83 "Hg (Jul 21, 5:00 PM)
Average83 °F77%29.93 "Hg
* Reported Jul 14 5:00 AM — Jul 29 5:00 AM, Kralendijk, Weather by CustomWeather, © 2015

Note: Actual official high and low records may vary slightly from our data, if they occured in-between our weather recording intervals... More about our weather records

Advertising

Kralendijk weather history for previous 24 hours

 ConditionsComfort  
Time TempWeatherWind HumidityBarometerVisibility
5:00 AM
Wed, Jul 29
81 °FWarm.18 mph79%29.92 "HgN/A
4:00 AM81 °FWarm.16 mph79%29.92 "HgN/A
3:00 AM81 °FWarm.17 mph84%29.92 "HgN/A
2:00 AM81 °FWarm.17 mph84%29.92 "HgN/A
1:00 AM82 °FWarm.18 mph79%29.92 "HgN/A
12:00 AM82 °FWarm.18 mph79%29.95 "HgN/A
11:00 PM
Tue, Jul 28
82 °FWarm.17 mph79%29.95 "HgN/A
10:00 PM82 °FWarm.18 mph79%29.92 "HgN/A
9:00 PM82 °FWarm.22 mph79%29.89 "HgN/A
8:00 PM82 °FWarm.21 mph74%29.86 "HgN/A
7:00 PM82 °FWarm.22 mph74%29.86 "HgN/A
6:00 PM84 °FScattered clouds.24 mph74%29.86 "HgN/A
5:00 PM86 °FScattered clouds.24 mph70%29.86 "HgN/A
4:00 PM86 °FScattered clouds.25 mph70%29.86 "HgN/A
3:00 PM86 °FScattered clouds.23 mph70%29.89 "HgN/A
2:00 PM88 °FWarm.23 mph70%29.89 "HgN/A
1:00 PM86 °FPassing clouds.21 mph70%29.92 "HgN/A
12:00 PM88 °FPassing clouds.22 mph70%29.95 "HgN/A
11:00 AM86 °FPassing clouds.22 mph70%29.95 "HgN/A
10:00 AM86 °FPassing clouds.21 mph75%29.95 "HgN/A
9:00 AM84 °FPassing clouds.22 mph79%29.92 "HgN/A
8:00 AM82 °FPassing clouds.22 mph84%29.92 "HgN/A
7:00 AM81 °FWarm.18 mph84%29.92 "HgN/A
6:00 AM81 °FWarm.20 mph84%29.89 "HgN/A
Weather by CustomWeather, © 2015

See weather overviewHow to use our weather pages